Probability
0 0 0 0 0 0 0 0 0 0 0 0 0 0 0 0 0 0 0 0 0 0 0 0 0 0 0 0 0 0 0 0 0 0 0 0 0 0 0 0 0 0 0
0 0 0 0 0 0 0 0 0 0 0 0 0 0 0 0 0 0 0 0 0 0 0 0 0 0 0 0 0 0 0 0 0 0 0 0 0 0 0 0 0 0 0
0 0 0 0 0 0 0 0 0 0 0 0 0 0 0 0 0 0 0 0 0 0 0 0 0 0 0 0 0 0 0 0 0 0 0 0 0 0 0 0 0 0 0
0 0 0 0 0 0 0 0 0 0 0 0 0 0 0 0 0 0 0 0 0 0 0 0 0 0 0 0 0 0 0 0 0 0 0 0 0 0 0 0 0 0 0
0 0 0 0 0 0 0 0 0 0 0 0 0 0 0 0 0 0 0 0 0 0 0 0 0 0 0 0 0 0 0 0 0 0 0 0 0 0 0 0 0 0 0
0 0 0 0 0 0 0 0 0 0 0 0 0 0 0 0 0 0 0 0 0 0 0 0 0 0 0 0 0 0 0 0 0 0 0 0 0 0 0 0 0 0 0
0 0 0 0 0 0 0 0 0 0 0 0 0 0 0 0 0 0 0 0 0 0 0 0 0 0 0 0 0 0 0 0 0 0 0 0 0 0 0 0 0 0 0
1 0 0 0 0 0 0 0 0 0 0 0 0 0 0 0 0 0 0 0 0 0 0 0 0 0 0 0 0 0 0 0 0 0 0 0 0 0 0 0 0 0 0
2 1 0 0 0 0 0 0 0 0 0 0 0 0 0 0 0 0 0 0 0 0 0 0 0 0 0 0 0 0 0 0 0 0 0 0 0 0 0 0 0 0 0
2 1 0 0 0 0 0 0 0 0 0 0 0 0 0 0 0 0 0 0 0 0 0 0 0 0 0 0 0 0 0 0 0 0 0 0 0 0 0 0 0 0 0
3 2 1 0 0 0 0 0 0 0 0 0 0 0 0 0 0 0 0 0 0 0 0 0 0 0 0 0 0 0 0 0 0 0 0 0 0 0 0 0 0 0 0
3 2 1 0 0 0 0 0 0 0 0 0 0 0 0 0 0 0 0 0 0 0 0 0 0 0 0 0 0 0 0 0 0 0 0 0 0 0 0 0 0 0 0
3 3 1 0 0 0 0 0 0 0 0 0 0 0 0 0 0 0 0 0 0 0 0 0 0 0 0 0 0 0 0 0 0 0 0 0 0 0 0 0 0 0 0
2 2 2 1 0 1 1 1 0 0 0 0 0 0 0 0 0 0 0 0 0 0 0 0 0 0 0 0 0 0 0 0 0 0 0 0 0 0 0 0 0 0 0
1 1 2 2 1 1 2 2 1 0 0 0 0 0 0 0 0 0 0 0 0 0 0 0 0 0 0 0 0 0 0 0 0 0 0 0 0 0 0 0 0 0 0
1 2 3 3 2 2 2 2 1 1 0 0 0 0 0 0 0 0 0 0 0 0 0 0 0 0 0 0 0 0 0 0 0 0 0 0 0 0 0 0 0 0 0
3 4 4 3 3 3 2 2 2 2 1 0 0 0 0 0 0 0 0 0 0 0 0 0 0 0 0 0 0 0 0 0 0 0 0 0 0 0 0 0 0 0 0
3 5 5 4 3 3 3 2 3 2 1 0 0 0 0 0 0 0 0 0 0 0 0 0 0 0 0 0 0 0 0 0 0 0 0 0 0 0 0 0 0 0 0
2 4 5 4 3 3 3 3 2 2 1 0 0 0 0 0 0 0 0 0 0 0 0 0 0 0 0 0 0 0 0 0 0 0 0 0 0 0 0 0 0 0 0
2 3 4 4 3 3 3 2 1 1 0 0 0 0 0 0 0 0 0 0 0 0 0 0 0 0 0 0 0 0 0 0 0 0 0 0 0 0 0 0 0 0 0
1 1 2 3 3 3 3 2 0 0 0 0 0 0 0 0 0 0 0 0 0 0 0 0 0 0 0 0 0 0 0 0 0 0 0 0 0 0 0 0 0 0 0
1 0 1 2 3 3 3 2 1 0 0 0 0 0 0 0 0 0 0 0 0 0 0 0 0 0 0 0 0 0 0 0 0 0 0 0 0 0 0 0 0 0 0
0 0 0 1 3 3 3 3 2 1 0 0 0 0 0 0 0 0 0 0 0 0 0 0 0 0 0 0 0 0 0 0 0 0 0 0 0 0 0 0 0 0 0
0 0 0 1 2 3 3 3 2 1 0 0 0 0 0 0 0 0 0 0 0 0 0 0 0 0 0 0 0 0 0 0 0 0 0 0 0 0 0 0 0 0 0
0 0 0 1 2 3 3 3 2 1 0 0 0 0 0 0 0 0 0 0 0 0 0 0 0 0 0 0 0 0 0 0 0 0 0 0 0 0 0 0 0 0 0
0 1 1 1 1 3 3 3 2 1 0 0 0 0 0 0 0 0 0 0 0 0 0 0 0 0 0 0 0 0 0 0 0 0 0 0 0 0 0 0 0 0 0
Wind_Speed
11 13 14 14 14 14 13 13 12 12 12 12 12 12 13 13 13 13 13 14 14 15 15 15 15 15 16 16 16 15 15 15 15 16 16 16 16 16 16 15 14 10 17
14 15 14 14 14 14 13 12 12 12 12 12 12 12 12 13 13 13 13 13 13 14 14 14 14 14 15 15 14 14 12 11 10 10 13 13 15 16 16 15 14 10 16
16 15 13 13 14 14 13 12 12 12 12 12 12 12 12 12 12 12 12 12 12 13 13 13 13 13 13 13 12 11 9 7 7 6 6 6 9 14 14 14 14 14 14
15 14 13 13 13 14 13 12 11 11 11 11 11 12 11 11 12 11 11 11 11 12 12 12 12 12 12 11 11 9 7 6 7 6 5 6 7 12 13 13 13 13 13
13 13 14 14 14 14 13 12 12 11 11 11 11 11 11 11 11 10 10 10 10 11 11 11 11 11 11 10 9 7 6 7 8 4 5 6 5 10 11 11 11 11 11
12 13 14 13 13 13 13 12 12 11 11 10 10 11 11 10 10 10 9 9 9 10 10 10 10 9 9 8 7 5 5 8 7 3 5 5 5 8 9 9 9 9 9
11 12 14 12 12 12 12 12 11 11 11 10 10 10 10 10 9 9 9 8 8 8 9 9 8 8 7 6 5 4 6 9 3 3 5 5 5 8 7 7 7 7 8
11 12 12 11 11 11 11 11 10 10 10 9 9 10 10 9 8 8 8 7 7 7 8 7 7 7 6 5 4 3 5 7 5 3 4 4 6 6 5 5 5 5 5
11 11 11 10 10 10 10 10 10 9 9 9 8 8 8 8 7 7 7 7 6 6 6 6 6 5 5 4 2 2 4 7 4 1 3 3 5 4 3 3 2 3 3
9 10 10 10 9 8 8 9 9 9 9 9 9 8 8 8 7 6 6 6 5 5 5 5 4 4 4 2 1 2 4 6 3 1 1 3 5 3 1 0 0 1 1
8 9 9 10 9 9 8 10 9 9 8 9 7 9 7 5 5 5 6 7 6 5 4 4 4 4 3 3 4 4 4 3 2 0 1 5 4 2 2 3 3 3 3
9 9 8 9 9 9 8 8 6 6 6 6 5 6 5 4 4 5 8 8 7 5 5 5 5 4 4 3 5 6 3 4 2 1 2 6 5 4 5 5 5 6 5
9 8 8 8 8 8 5 7 4 4 5 6 7 7 5 4 3 4 3 4 4 5 4 5 5 4 4 3 3 3 3 2 1 1 2 6 6 6 8 8 8 8 8
10 10 9 8 8 7 6 6 5 4 5 5 6 7 5 3 3 3 3 4 4 3 4 4 3 5 4 3 3 3 3 2 2 1 2 7 7 8 10 11 11 11 11
11 11 10 9 8 7 6 5 5 5 5 5 5 6 6 4 4 4 3 3 4 4 4 4 4 4 4 4 3 3 4 4 3 3 2 8 9 10 12 13 13 13 13
11 11 11 10 9 8 7 5 5 5 5 5 5 6 7 5 4 4 4 4 4 3 4 4 4 3 3 3 4 4 4 5 5 5 4 6 10 12 14 15 15 15 15
11 11 11 12 10 10 9 8 5 5 5 5 5 6 7 6 5 5 4 4 4 4 4 3 4 2 2 3 4 5 4 5 5 6 5 4 5 11 14 15 16 16 16
9 10 11 10 11 11 9 8 6 6 6 5 5 6 7 8 7 5 5 5 5 4 4 3 3 3 3 3 3 4 4 4 6 6 6 5 5 5 8 14 15 16 16
10 10 11 11 12 11 10 8 7 6 6 5 5 6 7 8 8 6 5 5 5 4 4 4 4 4 4 4 4 4 4 5 6 6 7 7 6 6 5 8 12 14 15
9 10 10 11 11 10 9 7 6 7 7 6 6 7 8 7 8 7 5 6 6 5 5 4 5 4 3 3 3 4 5 6 6 7 7 7 6 7 6 6 5 8 14
9 9 10 11 11 9 8 8 8 9 7 6 6 8 9 9 9 8 6 6 6 6 6 6 5 5 4 3 2 4 5 8 9 7 6 5 5 6 6 6 5 5 5
9 10 10 11 11 11 9 9 8 7 7 7 6 8 10 10 10 9 9 7 7 6 7 7 6 4 4 4 3 2 4 4 4 6 5 5 5 4 5 6 6 6 5
9 9 9 10 11 11 10 7 6 5 5 6 8 8 9 10 10 10 10 8 8 7 7 8 7 8 5 5 5 4 3 4 3 3 4 4 4 4 5 5 6 6 6
8 8 8 9 9 10 10 9 10 9 10 10 7 7 7 9 10 10 9 10 9 8 8 8 8 7 7 6 5 6 5 3 2 3 3 3 4 5 5 5 5 6 6
7 7 7 8 8 8 9 10 10 10 8 6 5 7 8 8 9 9 9 9 9 8 9 8 8 8 8 7 5 4 5 5 5 4 5 4 3 4 5 5 5 5 5
5 5 6 7 7 8 8 10 10 11 9 8 8 8 7 6 7 10 10 9 9 8 9 9 8 9 8 8 7 5 5 4 5 6 7 5 5 4 5 4 5 5 4
Wind_Direction
127 133 143 140 137 133 128 125 123 119 117 114 109 106 104 101 97 94 92 90 89 87 86 84 82 79 77 76 74 72 72 72 75 77 73 69 68 65 61 61 64 60 63
129 135 143 141 139 135 131 129 126 123 122 119 114 109 107 105 101 97 95 93 92 90 89 87 85 83 80 78 76 74 72 70 72 77 80 72 69 66 64 63 66 65 64
128 136 143 141 140 138 135 132 130 127 125 123 119 114 110 109 106 101 99 97 96 95 92 90 88 86 82 80 77 74 68 51 35 36 74 82 70 67 65 63 65 65 62
131 141 145 141 141 140 139 137 135 131 127 125 123 119 115 113 112 106 103 102 101 98 95 93 91 88 84 81 78 72 54 20 4 22 66 73 71 70 68 65 64 63 61
134 139 137 143 144 143 142 142 139 136 132 130 128 125 121 117 115 111 107 106 105 102 100 96 93 89 86 82 78 66 32 358 351 26 75 76 70 72 70 67 65 63 59
135 133 140 146 147 147 146 145 144 142 138 135 132 131 128 124 120 116 110 107 108 106 104 102 97 93 88 83 76 55 10 346 338 54 75 80 75 74 71 69 68 65 59
135 132 144 147 148 149 150 149 148 146 143 139 137 137 134 132 128 124 119 115 114 111 109 107 102 96 90 85 74 40 359 343 349 65 74 80 82 80 73 69 69 63 58
135 134 144 146 149 150 152 152 151 150 148 144 143 141 139 139 138 134 128 124 120 119 119 115 111 105 98 90 73 25 348 338 352 57 87 89 94 87 79 71 64 60 56
137 138 146 153 153 151 153 152 152 151 150 148 145 142 141 140 138 134 132 134 134 133 130 126 123 118 113 102 76 358 324 323 321 309 104 104 109 96 83 76 61 55 52
141 147 154 160 161 160 158 157 155 154 155 151 148 143 142 144 144 143 141 141 145 148 145 142 141 139 137 140 174 272 290 304 282 259 114 125 127 122 118 135 282 329 347
153 157 161 165 165 165 167 164 159 158 159 154 152 154 154 165 166 167 168 156 156 153 160 166 167 170 176 199 219 238 266 262 272 302 99 135 148 179 241 250 251 255 262
169 169 166 168 168 169 170 159 167 169 166 172 167 168 182 191 180 169 160 164 166 169 178 191 196 199 209 216 221 226 243 246 254 220 173 167 181 216 244 253 254 254 258
175 174 172 172 170 170 162 161 172 172 171 184 178 177 188 189 171 158 154 160 173 186 197 202 202 217 221 219 203 209 229 260 262 234 183 186 202 227 243 252 254 252 254
181 181 179 174 172 172 167 170 173 172 173 179 181 179 183 182 180 175 172 174 181 191 199 200 204 218 224 226 235 237 244 255 256 239 207 204 215 237 249 253 256 255 254
187 184 182 181 179 175 175 178 178 177 176 178 178 182 182 181 185 186 185 183 187 190 193 204 214 219 219 225 233 238 246 255 256 249 229 217 221 236 250 255 256 257 256
191 187 183 187 186 181 183 185 183 180 178 181 180 184 187 187 189 188 189 188 195 193 193 197 213 216 216 221 234 240 244 248 247 244 236 231 229 234 245 252 255 258 259
191 187 185 187 188 188 190 190 190 187 186 188 185 187 190 193 191 188 190 191 198 198 197 196 218 216 218 226 235 240 241 245 248 249 246 238 233 233 237 246 253 257 260
189 189 189 186 188 191 193 191 193 193 192 194 188 190 196 198 194 191 195 196 195 193 192 194 205 210 222 229 239 245 244 247 248 248 247 245 240 237 234 238 245 252 257
191 191 190 188 189 192 193 193 193 194 199 199 195 194 198 199 198 196 199 197 193 193 196 199 201 200 216 228 238 249 250 249 249 249 247 245 240 237 232 233 236 241 249
188 190 192 191 192 190 190 192 194 199 205 204 201 200 197 200 199 198 200 200 194 194 199 201 205 207 213 221 242 253 251 249 244 241 242 243 238 236 233 235 233 237 240
183 187 193 194 194 188 189 192 196 203 204 206 206 201 199 200 200 201 203 203 200 201 202 202 202 211 218 206 242 273 264 246 241 236 232 233 236 236 234 233 230 231 237
187 189 194 198 195 193 196 196 199 198 201 208 209 205 203 203 201 203 205 204 203 205 207 205 201 204 209 188 193 240 291 296 255 232 225 226 233 236 237 234 231 232 234
192 192 196 199 198 198 195 191 190 193 200 205 210 211 207 204 204 204 204 204 205 206 211 209 204 205 212 205 200 197 219 249 297 275 229 219 222 230 239 239 234 235 235
196 196 198 197 198 198 193 192 191 198 204 208 206 204 201 202 205 207 205 206 207 208 211 211 208 207 208 213 209 217 224 220 239 292 286 245 233 235 239 241 241 240 237
195 194 198 198 200 198 194 194 198 206 211 209 198 197 201 203 205 208 208 209 211 212 212 211 209 209 211 213 207 200 222 236 230 238 270 275 265 249 241 241 240 241 240
203 192 192 197 202 200 198 197 199 205 207 206 204 202 202 202 204 207 210 211 213 214 215 215 213 212 214 217 217 207 194 202 211 218 242 256 263 261 251 243 239 239 239